Temperature
17 17 17 16 16 16 16 16 16 15 15 15 15 14 14 14 14 14 14 13 13 13 13 13 13 13 13 13 13 13 13 13 13 13 13 13 13 13 13 13 13 13 13
17 17 17 17 16 16 16 16 15 15 15 15 14 14 14 14 14 14 14 13 13 13 13 13 13 13 13 13 13 13 13 13 13 13 13 12 13 13 13 13 13 13 13
17 17 17 17 16 16 16 16 15 15 15 15 14 14 14 14 14 13 13 13 13 13 13 13 12 12 12 12 12 13 13 12 12 12 12 12 12 12 12 13 13 13 13
17 17 17 17 16 16 16 16 15 15 15 14 14 14 14 14 13 13 13 13 13 13 12 12 12 12 12 12 12 12 12 12 12 12 12 12 12 12 12 12 12 12 12
17 17 17 16 16 16 16 15 15 15 15 14 14 14 14 13 13 13 13 13 13 12 12 12 12 12 12 12 12 12 12 12 12 12 12 12 12 12 11 12 12 12 12
17 17 17 16 16 16 15 15 15 15 14 14 14 14 13 13 13 13 13 12 12 12 12 12 12 12 12 11 11 11 11 11 11 11 11 11 11 11 11 11 11 11 11
17 17 16 16 16 16 15 15 15 15 14 14 14 13 13 13 13 12 12 12 12 12 12 12 11 11 11 11 11 11 11 11 11 10 10 10 10 10 10 11 11 11 11
17 17 16 16 16 15 15 15 15 14 14 14 14 13 13 13 12 12 12 12 12 12 11 11 11 11 11 11 11 11 11 10 10 10 10 10 10 10 10 10 10 10 10
17 17 16 16 16 15 15 15 14 14 14 13 13 13 13 13 12 12 12 12 12 11 11 11 11 11 11 10 10 10 10 10 10 10 10 10 10 10 10 10 10 10 9
17 17 16 16 16 15 15 15 14 14 13 13 13 13 12 12 12 12 11 11 11 11 11 11 10 10 10 10 10 10 10 10 10 10 10 10 10 10 9 9 9 9 9
17 17 16 16 16 15 15 14 14 14 13 13 13 12 12 12 12 11 11 11 11 11 11 10 10 10 10 10 10 9 9 9 9 9 9 9 9 9 9 9 9 9 9
17 17 16 16 15 15 14 14 14 13 13 13 13 12 12 12 11 11 11 11 11 10 10 10 10 10 10 9 9 9 9 9 9 9 9 9 9 9 8 8 8 8 8
17 16 16 15 15 15 14 14 13 13 13 13 12 12 12 11 11 11 10 10 10 10 10 10 9 9 9 9 9 9 9 9 8 8 8 8 8 8 8 8 8 8 8
16 16 15 15 15 14 14 14 13 13 13 12 12 12 12 11 11 11 10 10 10 10 9 9 9 9 9 9 9 9 8 8 8 8 8 8 7 7 7 7 7 7 7
16 16 15 15 14 14 14 13 13 13 13 12 12 12 11 11 11 10 10 10 9 9 9 9 9 9 9 9 8 8 8 8 8 7 7 7 7 7 7 7 7 7 7
16 15 15 15 14 14 14 13 13 12 12 12 12 11 11 11 10 10 10 9 9 9 9 9 9 8 8 8 8 8 8 8 7 7 7 7 7 6 6 6 6 6 6
15 15 15 14 14 14 13 13 13 12 12 12 11 11 11 11 10 10 9 9 9 9 9 8 8 8 8 8 7 7 7 7 7 7 7 6 6 6 6 6 6 6 6
15 15 14 14 14 13 13 13 12 12 12 11 11 11 11 10 10 9 9 9 9 8 8 8 8 8 7 7 7 7 7 7 7 6 6 6 6 6 5 5 5 5 5
15 14 14 14 13 13 13 12 12 12 11 11 11 11 10 10 10 9 9 9 8 8 8 8 8 7 7 7 7 7 7 6 6 6 6 6 6 5 5 5 5 5 5
14 14 14 13 13 13 12 12 12 11 11 11 11 11 10 10 9 9 9 8 8 8 8 8 7 7 7 7 6 6 6 6 6 6 5 5 5 5 5 5 5 5 4
14 13 13 13 12 12 12 12 11 11 11 11 11 10 10 9 9 9 8 8 8 8 7 7 7 7 7 6 6 6 6 6 5 5 5 5 5 5 4 4 4 4 4
13 13 12 12 12 12 11 11 11 11 10 10 10 10 9 9 9 8 8 8 7 7 7 7 7 6 6 6 6 6 5 5 5 5 5 5 4 4 4 4 4 4 4
13 12 12 12 11 11 11 11 10 10 10 10 10 9 9 9 8 8 8 7 7 7 7 6 6 6 6 6 5 5 5 5 5 5 4 4 4 4 4 4 3 3 3
12 12 11 11 11 11 10 10 10 10 10 9 9 9 9 8 8 8 8 7 7 7 6 6 6 6 5 5 5 5 5 5 4 4 4 4 4 4 3 3 3 3 3
11 11 11 10 10 10 10 10 9 9 9 9 9 8 8 8 8 7 7 7 6 6 6 6 5 5 5 5 5 5 4 4 4 4 4 3 3 3 3 3 3 3 3
11 10 10 10 10 9 9 9 9 9 8 8 8 8 8 7 7 7 6 6 6 6 6 5 5 5 5 5 4 4 4 4 4 3 3 3 3 3 3 3 3 3 2
Wind_Speed
6 5 6 5 4 4 4 4 3 2 2 3 3 3 4 3 3 4 4 4 4 4 4 4 4 4 3 3 3 2 2 1 0 3 2 3 4 5 6 6 6 6 5
6 6 6 5 5 5 4 3 3 3 2 2 3 3 3 3 3 4 4 4 4 4 4 4 4 4 4 3 3 3 2 1 0 2 3 3 4 4 5 5 5 6 6
7 7 6 5 5 4 4 4 4 4 3 3 3 4 3 3 4 4 4 4 4 3 3 3 3 4 4 3 3 3 3 3 1 1 3 2 2 3 4 5 5 5 6
8 7 7 6 5 5 4 4 4 4 4 3 3 3 3 4 4 4 4 5 4 4 3 3 3 3 3 3 3 3 3 3 3 2 2 3 3 3 3 3 4 4 4
9 8 7 6 6 5 5 4 4 4 4 4 4 4 3 3 3 4 4 4 4 4 4 4 4 5 6 4 4 3 3 3 3 2 2 3 3 3 3 3 2 3 3
9 8 7 7 6 6 5 5 5 4 4 4 4 3 3 3 5 6 5 4 4 4 4 4 4 6 7 8 8 7 5 3 2 2 2 2 3 3 2 2 2 2 3
9 8 8 7 7 6 6 5 4 4 4 4 3 3 3 2 5 6 7 4 4 3 3 3 4 5 6 5 7 9 8 8 5 1 1 3 3 3 2 2 2 2 3
9 9 8 8 7 6 6 5 4 3 4 3 2 2 2 1 3 5 6 5 4 3 2 2 2 3 4 4 5 6 6 6 6 4 2 3 3 3 2 2 2 2 2
10 9 9 9 8 7 6 5 4 4 3 3 2 2 2 1 1 3 5 3 3 3 3 3 2 2 5 6 5 5 6 6 7 8 7 7 7 6 5 2 2 2 3
11 10 9 9 9 8 7 5 3 4 4 3 2 2 2 2 2 2 4 2 2 2 3 3 4 3 5 5 3 3 4 5 6 7 8 8 7 7 7 2 1 1 2
9 9 8 8 8 7 6 4 4 4 3 3 2 1 2 2 2 2 3 2 1 0 1 2 3 5 5 5 4 2 4 5 4 4 4 5 5 5 5 4 2 1 2
9 9 8 7 7 6 6 4 4 5 4 2 1 1 2 2 2 2 2 2 2 2 1 2 3 6 6 7 5 5 7 6 3 3 3 4 4 4 4 4 5 4 3
10 9 8 7 6 6 6 6 4 4 3 2 2 2 2 2 2 2 2 2 2 1 2 3 4 5 6 5 7 8 6 3 2 2 3 3 3 4 3 3 5 5 5
11 9 8 7 6 5 5 5 5 5 4 3 3 3 2 2 2 2 2 2 2 2 2 3 5 5 4 5 6 5 3 2 2 2 3 3 3 3 3 3 3 3 4
10 8 7 7 7 6 5 4 5 6 6 6 5 5 4 4 6 6 3 3 2 2 1 1 2 2 3 4 4 4 3 3 2 2 2 3 3 3 3 3 2 2 3
9 8 7 6 5 5 5 2 1 3 5 7 7 6 5 6 6 6 6 5 5 3 1 1 2 3 3 4 4 4 3 3 3 3 3 3 3 3 3 3 2 2 3
9 8 6 6 6 6 5 5 3 2 2 3 5 6 5 5 5 4 4 3 3 2 2 2 3 4 4 4 4 4 4 4 3 3 3 3 3 3 3 3 3 3 4
8 9 8 6 6 6 6 5 5 4 3 3 4 5 5 4 4 4 3 1 1 1 2 3 4 4 4 4 4 4 4 4 3 3 3 4 3 3 4 4 4 4 5
7 6 5 5 5 5 5 5 4 5 4 3 2 2 4 4 3 4 3 2 3 4 4 4 5 5 4 4 4 4 4 4 4 4 4 4 4 4 4 5 5 6 5
6 8 7 5 5 5 5 5 5 4 4 4 4 4 2 2 2 3 3 3 4 4 4 5 5 5 4 4 4 4 4 4 4 4 4 4 4 4 5 6 5 5 5
6 7 8 5 5 6 5 6 5 5 5 5 5 5 6 4 5 5 4 4 5 5 5 5 4 4 4 4 4 5 5 5 5 5 5 5 4 4 5 5 6 6 6
6 6 5 6 5 5 5 5 5 5 6 5 4 4 7 4 4 4 5 5 5 5 5 5 5 5 5 5 5 5 5 5 5 5 5 5 5 5 5 5 5 6 6
6 6 5 5 5 6 5 5 5 5 5 5 5 4 4 5 5 5 6 5 5 5 5 5 5 5 6 8 8 6 6 6 6 6 5 6 5 6 6 6 7 7 7
6 6 6 5 4 5 5 5 5 5 5 5 5 5 5 6 6 6 6 5 5 5 6 6 6 7 9 9 9 10 11 12 11 9 8 7 7 7 7 7 8 8 8
5 5 5 5 5 5 5 5 5 5 5 5 5 5 5 6 6 6 5 5 6 6 7 7 7 8 10 11 11 11 12 13 13 11 9 7 8 8 8 8 8 8 9
4 4 5 4 4 4 5 5 5 5 5 5 5 5 5 5 5 6 5 5 5 5 6 7 9 10 11 11 12 13 14 14 14 14 11 7 7 8 8 8 10 9 10
Wind_Direction
155 144 132 137 135 123 119 128 128 115 107 100 89 81 69 52 44 55 48 42 44 28 28 38 23 19 21 11 17 29 34 100 244 307 314 330 355 360 0 6 9 12 5
156 142 140 139 129 119 121 128 122 113 111 110 100 86 74 59 51 59 53 47 52 40 28 34 17 24 23 12 22 22 11 14 184 311 327 340 345 342 352 4 8 10 11
150 141 138 136 132 130 132 129 120 110 96 91 95 93 81 67 59 56 62 53 50 42 35 39 17 27 18 9 17 15 2 6 15 332 325 330 330 345 353 357 4 6 13
148 144 143 145 143 139 130 123 118 108 99 90 90 94 89 75 66 61 60 54 44 33 27 34 28 33 21 11 12 3 6 14 13 6 338 334 329 332 1 359 357 354 355
150 151 154 150 140 129 123 119 109 103 104 105 96 84 81 81 74 72 61 59 50 36 25 23 32 37 37 34 29 14 19 17 13 13 350 346 342 349 346 340 355 342 346
154 157 153 145 140 136 133 122 109 101 98 97 97 98 83 72 75 73 74 65 54 45 26 10 14 27 28 31 33 34 34 29 14 10 345 338 320 317 323 344 351 357 335
157 157 155 151 149 150 141 127 126 120 107 102 101 104 98 82 80 76 73 74 62 50 36 20 17 22 27 24 21 24 20 19 18 27 349 313 303 306 315 326 328 319 279
161 162 160 154 153 150 141 142 141 132 128 127 128 131 119 83 80 77 76 69 65 50 32 26 30 9 11 29 26 20 11 3 352 358 320 293 302 305 298 280 271 303 303
168 170 167 160 157 155 156 158 152 141 143 151 152 147 148 224 90 89 80 71 57 25 8 25 35 14 9 36 39 18 359 345 352 354 349 340 337 339 347 358 347 359 328
179 175 167 163 162 167 169 163 154 150 160 158 159 183 190 226 233 130 98 93 71 18 360 2 11 9 10 28 36 16 350 330 335 340 343 344 343 341 344 342 294 313 312
170 161 160 165 167 166 161 156 150 145 141 147 167 242 248 246 239 187 137 126 151 96 342 333 325 344 354 0 0 339 320 325 324 328 330 333 340 343 341 339 322 265 279
153 155 161 164 166 160 152 150 145 144 143 154 167 283 295 284 254 232 200 175 162 156 250 276 296 324 336 343 344 333 337 346 342 338 340 334 331 329 325 328 326 315 288
150 157 161 160 159 155 157 157 150 151 157 175 184 222 270 286 288 277 251 223 198 202 252 274 299 317 329 334 334 336 344 349 339 332 322 309 300 300 311 325 329 328 327
157 162 161 159 159 157 160 165 166 172 176 186 197 213 236 255 262 263 262 253 247 269 286 304 315 324 325 317 327 333 328 300 299 286 291 294 302 313 317 314 317 328 330
159 162 162 164 166 167 171 182 184 195 191 192 203 201 204 231 243 229 214 224 223 234 257 333 335 327 323 319 315 308 306 312 305 289 283 297 305 310 309 313 305 323 321
161 165 167 167 167 165 163 165 217 202 212 212 210 205 218 230 236 230 227 232 233 220 172 249 271 279 282 290 296 301 300 291 282 278 278 278 287 294 302 306 304 302 300
167 171 169 170 171 171 174 177 194 267 276 235 224 217 218 221 222 224 225 231 239 198 195 244 255 261 267 271 271 272 276 275 267 266 268 271 279 287 292 293 293 293 293
164 172 172 177 177 180 186 190 189 194 219 258 255 238 228 222 225 226 215 161 306 268 235 246 254 257 259 263 265 267 270 273 269 265 266 267 266 274 283 282 280 281 287
165 170 174 176 178 181 183 186 190 197 205 216 233 258 242 236 240 241 202 200 234 250 251 252 254 257 259 258 259 260 261 258 261 261 264 265 263 264 272 274 275 278 281
175 177 170 172 176 178 181 186 194 201 207 211 220 225 211 191 231 243 232 233 238 248 253 255 257 255 253 254 258 259 261 257 257 256 260 263 263 261 265 272 272 275 278
175 181 178 172 181 187 190 197 201 202 209 217 227 223 201 205 220 229 233 237 239 243 247 249 252 255 255 257 259 259 257 256 253 253 256 259 262 268 269 270 273 275 278
174 178 182 187 190 194 197 199 198 202 209 216 231 231 214 214 223 229 234 240 241 242 240 240 246 247 244 246 252 256 259 258 258 256 257 259 259 264 266 268 272 277 279
171 177 184 191 194 195 196 198 201 205 210 214 217 220 219 225 233 236 240 245 246 249 249 243 248 256 258 257 253 245 250 253 250 247 251 256 259 262 263 264 268 275 277
173 180 187 191 193 196 201 207 208 212 215 217 218 220 223 228 233 236 238 240 242 249 250 250 251 256 262 266 265 262 259 259 258 251 247 253 259 264 265 265 266 267 271
172 180 185 189 194 200 205 209 213 216 220 223 226 230 232 233 236 239 238 238 239 246 253 256 259 262 265 267 269 269 270 269 265 262 255 250 257 262 264 265 267 269 269
178 186 190 192 195 199 203 211 220 222 224 228 230 231 235 239 243 244 242 241 247 251 255 258 261 264 268 270 272 273 274 273 270 267 261 254 256 262 264 266 268 268 270
Height
1564 1565 1566 1567 1568 1568 1568 1568 1568 1568 1567 1567 1567 1566 1565 1564 1563 1562 1561 1560 1559 1558 1557 1555 1554 1553 1552 1551 1550 1549 1548 1547 1545 1544 1543 1542 1540 1538 1537 1536 1535 1534 1534
1563 1564 1566 1567 1567 1568 1568 1568 1568 1568 1567 1567 1567 1566 1565 1564 1563 1562 1561 1560 1559 1558 1557 1555 1554 1553 1551 1550 1549 1548 1547 1546 1545 1543 1542 1541 1539 1537 1536 1535 1534 1533 1533
1562 1563 1565 1566 1566 1567 1568 1568 1568 1568 1567 1567 1567 1566 1565 1564 1563 1562 1561 1560 1559 1558 1556 1555 1553 1552 1551 1549 1548 1547 1546 1545 1544 1542 1541 1540 1538 1537 1535 1534 1533 1533 1532
1560 1562 1563 1564 1565 1566 1567 1567 1567 1567 1567 1567 1566 1566 1565 1564 1563 1562 1561 1560 1559 1557 1556 1555 1553 1551 1550 1549 1547 1546 1545 1544 1543 1541 1540 1538 1537 1536 1534 1532 1532 1531 1531
1558 1560 1562 1563 1564 1565 1566 1567 1567 1567 1567 1566 1566 1565 1564 1564 1563 1561 1560 1559 1558 1557 1556 1554 1553 1551 1550 1548 1547 1545 1544 1543 1541 1540 1538 1537 1536 1534 1533 1532 1531 1530 1529
1556 1558 1560 1562 1563 1564 1565 1566 1566 1566 1566 1566 1565 1565 1564 1563 1562 1561 1560 1559 1558 1556 1555 1554 1552 1551 1549 1547 1546 1545 1543 1542 1540 1539 1537 1536 1535 1534 1533 1532 1530 1529 1528
1554 1557 1558 1560 1562 1563 1564 1564 1565 1565 1565 1565 1564 1564 1563 1562 1561 1560 1559 1558 1557 1556 1554 1553 1552 1550 1548 1546 1545 1544 1542 1541 1540 1539 1537 1535 1534 1533 1531 1530 1529 1528 1527
1552 1554 1556 1558 1560 1561 1562 1563 1563 1564 1564 1564 1563 1563 1562 1561 1560 1559 1558 1557 1556 1555 1553 1552 1551 1549 1547 1545 1544 1542 1541 1540 1538 1537 1536 1534 1533 1532 1530 1529 1527 1526 1525
1549 1552 1554 1556 1557 1559 1560 1561 1561 1562 1562 1562 1562 1561 1561 1560 1559 1558 1557 1556 1555 1554 1552 1551 1550 1548 1546 1545 1543 1541 1539 1538 1537 1536 1534 1533 1532 1530 1528 1527 1525 1524 1522
1546 1549 1551 1554 1555 1556 1558 1559 1559 1560 1560 1561 1560 1560 1559 1559 1558 1557 1556 1555 1554 1553 1551 1550 1549 1547 1545 1543 1541 1540 1538 1536 1535 1533 1532 1531 1529 1528 1526 1525 1523 1522 1520
1544 1547 1549 1551 1553 1554 1556 1557 1557 1558 1558 1559 1559 1558 1558 1557 1557 1556 1555 1554 1553 1551 1550 1549 1547 1545 1544 1542 1540 1538 1536 1535 1533 1531 1529 1528 1527 1525 1524 1523 1522 1521 1519
1541 1544 1546 1548 1550 1552 1553 1554 1555 1556 1556 1556 1556 1556 1556 1555 1555 1554 1553 1552 1551 1550 1548 1547 1545 1544 1542 1540 1538 1536 1535 1533 1531 1529 1527 1525 1524 1523 1521 1520 1519 1518 1517
1538 1540 1543 1545 1547 1549 1550 1551 1552 1553 1553 1553 1553 1553 1553 1553 1552 1552 1551 1550 1549 1548 1546 1545 1544 1542 1540 1538 1537 1535 1533 1530 1528 1527 1525 1523 1522 1521 1519 1518 1516 1515 1513
1535 1537 1540 1542 1544 1546 1547 1548 1549 1549 1550 1550 1550 1550 1550 1550 1549 1549 1548 1547 1546 1545 1544 1543 1541 1540 1538 1536 1534 1533 1531 1528 1526 1524 1523 1522 1520 1518 1517 1515 1513 1511 1509
1532 1534 1537 1539 1541 1542 1544 1545 1546 1547 1547 1547 1547 1547 1547 1546 1546 1546 1545 1544 1543 1542 1541 1539 1538 1536 1535 1533 1532 1530 1528 1526 1524 1522 1521 1519 1517 1516 1514 1512 1510 1508 1506
1528 1531 1533 1535 1537 1539 1540 1542 1542 1543 1544 1544 1544 1544 1544 1544 1543 1542 1542 1541 1540 1539 1537 1536 1534 1533 1531 1530 1528 1526 1525 1523 1521 1520 1518 1516 1514 1512 1510 1509 1507 1505 1503
1525 1527 1529 1532 1533 1535 1536 1537 1538 1540 1540 1540 1540 1540 1540 1540 1539 1539 1538 1537 1536 1535 1533 1532 1531 1529 1528 1526 1525 1523 1521 1520 1518 1516 1514 1512 1511 1509 1507 1505 1503 1501 1499
1522 1524 1526 1528 1530 1531 1532 1533 1534 1535 1536 1536 1536 1537 1536 1536 1536 1535 1534 1533 1532 1530 1529 1528 1527 1525 1524 1522 1521 1519 1517 1516 1514 1512 1510 1509 1507 1505 1503 1501 1499 1497 1495
1519 1520 1522 1524 1526 1527 1529 1530 1531 1531 1532 1532 1532 1532 1532 1532 1532 1531 1530 1529 1527 1526 1525 1524 1523 1521 1520 1518 1516 1515 1513 1511 1510 1508 1506 1505 1503 1501 1499 1497 1495 1493 1491
1515 1517 1519 1520 1522 1523 1524 1525 1526 1527 1527 1528 1528 1528 1528 1527 1526 1526 1525 1524 1523 1522 1521 1519 1518 1517 1515 1513 1512 1510 1508 1506 1505 1503 1502 1500 1498 1496 1494 1492 1491 1489 1486
1511 1513 1514 1516 1517 1518 1520 1521 1522 1522 1523 1523 1523 1524 1524 1523 1522 1521 1520 1519 1518 1517 1516 1515 1513 1512 1510 1508 1507 1505 1503 1501 1500 1498 1496 1495 1493 1491 1489 1487 1485 1483 1481
1506 1508 1509 1511 1512 1514 1515 1516 1517 1517 1518 1518 1518 1519 1519 1518 1517 1516 1515 1514 1513 1512 1511 1509 1508 1507 1505 1503 1501 1499 1497 1496 1494 1492 1490 1489 1487 1485 1484 1482 1480 1478 1475
1502 1503 1505 1506 1508 1509 1510 1510 1511 1512 1512 1513 1513 1513 1513 1512 1512 1511 1510 1509 1508 1507 1505 1504 1502 1501 1499 1497 1496 1494 1491 1489 1488 1486 1484 1482 1481 1479 1477 1475 1473 1471 1469
1497 1499 1500 1501 1503 1504 1504 1505 1506 1506 1507 1507 1507 1507 1507 1506 1505 1505 1504 1503 1502 1501 1499 1498 1496 1494 1493 1491 1489 1487 1485 1483 1481 1480 1478 1476 1474 1472 1470 1468 1466 1465 1463
1493 1495 1496 1497 1498 1498 1499 1500 1500 1501 1501 1501 1501 1501 1500 1500 1499 1498 1497 1496 1495 1494 1492 1491 1489 1487 1486 1484 1482 1480 1478 1476 1475 1473 1471 1469 1466 1465 1463 1461 1459 1458 1456
1489 1490 1491 1492 1492 1493 1494 1494 1494 1495 1495 1495 1495 1494 1494 1493 1492 1491 1490 1489 1488 1487 1485 1484 1482 1481 1479 1477 1475 1473 1471 1469 1467 1465 1463 1461 1459 1457 1455 1453 1451 1450 1448